Flag for Hungary Weather past 2 weeks in Debrecen, Hungary

Now
39 °F

Passing clouds.


Feels Like: 30 °F
Forecast: 44 / 51 °F
Wind: 17 mph from Southwest

Location: Debrecen Airport

Current Time: Dec 22, 2014 at 7:02:11 PM

Latest Report: Dec 22, 2014 at 4:45 PM


Visibility: N/A

Pressure: 30.07 "Hg

Humidity: 87%

Dew point: 36 °F

Location of DebrecenLocation

Historic Weather in Debrecen — Graph

°F

Debrecen temperature yesterday

Maximum temperature yesterday: 46 °F (at 1:45 PM)
Minimum temperature yesterday: 37 °F (at 5:15 AM)
Average temperature yesterday: 41 °F

Past Weeks' High & Low Weather Summary

 TemperatureHumidityPressure
High52 °F (Dec 16, 1:15 PM)100% (Dec 7, 4:15 PM)30.24 "Hg (Dec 7, 4:15 PM)
Low27 °F (Dec 13, 5:45 AM)53% (Dec 21, 1:45 PM)29.83 "Hg (Dec 17, 5:15 AM)
Average41 °F84%30.09 "Hg
* Reported Dec 7 4:15 PM — Dec 22 4:45 PM, Debrecen, Weather by CustomWeather, © 2014

Note: Actual official high and low records may vary slightly from our data, if they occured in-between our weather recording intervals... More about our weather records

Advertising

Debrecen weather history for previous 24 hours

 ConditionsComfort  
Time TempWeatherWind HumidityBarometerVisibility
4:45 PM
Dec 22
39 °FPassing clouds.17 mph87%30.07 "HgN/A
4:15 PM39 °FPassing clouds.18 mph87%30.07 "HgN/A
3:45 PM39 °FPassing clouds.16 mph81%30.09 "HgN/A
3:15 PM39 °FMostly cloudy.16 mph87%30.07 "HgN/A
2:45 PM39 °FLight rain. Mostly cloudy.15 mph87%30.09 "HgN/A
2:15 PM39 °FLight rain. More clouds than sun.18 mph81%30.09 "HgN/A
1:45 PM39 °FBroken clouds.21 mph75%30.09 "HgN/A
1:15 PM39 °FBroken clouds.24 mph75%30.09 "HgN/A
12:45 PM39 °FBroken clouds.21 mph75%30.09 "HgN/A
12:15 PM39 °FPartly sunny.20 mph75%30.12 "HgN/A
11:45 AM39 °FLight rain. More clouds than sun.20 mph75%30.12 "HgN/A
11:15 AM39 °FLight rain. Broken clouds.20 mph75%30.15 "HgN/A
10:45 AM39 °FBroken clouds.17 mph75%30.15 "HgN/A
10:15 AM39 °FBroken clouds.13 mph75%30.18 "HgN/A
9:45 AM39 °FBroken clouds.18 mph75%30.18 "HgN/A
9:15 AM37 °FBroken clouds.14 mph81%30.18 "HgN/A
8:45 AM37 °FBroken clouds.14 mph81%30.18 "HgN/A
8:15 AM36 °FPartly sunny.16 mph87%30.18 "HgN/A
7:45 AM37 °FPartly sunny.13 mph81%30.21 "HgN/A
7:15 AM37 °FMostly cloudy.13 mph81%30.21 "HgN/A
6:45 AM37 °FMostly cloudy.14 mph81%30.21 "HgN/A
6:15 AM37 °FOvercast.15 mph87%30.24 "HgN/A
5:45 AM37 °FOvercast.16 mph87%30.24 "HgN/A
5:15 AM36 °FOvercast.10 mph87%30.21 "HgN/A
Weather by CustomWeather, © 2014

See weather overviewHow to use our weather pages